DW6860 Weather Reports


Display with metric or nautical units.
time (UTC)temp
F
wind
direction
speed
MPH
gust
MPH
rain 1hr
in
rain 24hr
in
rain mn
in
humidity
%
barometer
mb
20200408224527 58 2 1.0 2.0 0.00 0.00 0.00 68 1023.4
20200408224026 58 349 1.0 1.0 0.00 0.00 0.00 67 1023.8
20200408223529 58 7 1.0 2.0 0.00 0.00 0.00 67 1023.8
20200408223030 58 4 2.0 2.0 0.00 0.00 0.00 66 1023.4
20200408222528 59 352 1.0 2.0 0.00 0.00 0.00 66 1023.8
20200408222031 59 344 1.0 2.0 0.00 0.00 0.00 66 1023.4
20200408221529 59 352 1.0 2.0 0.00 0.00 0.00 65 1023.4
20200408221026 59 354 1.0 2.0 0.00 0.00 0.00 64 1023.4
20200408220527 59 350 1.0 2.0 0.00 0.00 0.00 64 1023.4
20200408220123 59 5 2.0 4.0 0.00 0.00 0.00 64 1023.4
20200408215527 60 6 2.0 4.0 0.00 0.00 0.00 64 1023.4
20200408215027 60 2 2.0 3.0 0.00 0.00 0.00 63 1023.4
20200408214527 60 3 2.0 2.0 0.00 0.00 0.00 63 1023.4
20200408214029 60 355 2.0 3.0 0.00 0.00 0.00 63 1023.4
20200408213527 60 352 2.0 3.0 0.00 0.00 0.00 63 1023.4
20200408213028 60 354 2.0 2.0 0.00 0.00 0.00 62 1023.4
20200408212526 61 356 2.0 4.0 0.00 0.00 0.00 61 1023.4
20200408212025 61 1 2.0 4.0 0.00 0.00 0.00 61 1023.4
20200408211527 61 358 2.0 4.0 0.00 0.00 0.00 60 1023.4
20200408211028 62 355 2.0 4.0 0.00 0.00 0.00 60 1023.4
20200408210527 62 355 2.0 4.0 0.00 0.00 0.00 59 1023.4
20200408210031 62 356 2.0 4.0 0.00 0.00 0.00 59 1023.4
20200408205526 63 3 2.0 4.0 0.00 0.00 0.00 58 1023.4
20200408205026 63 6 2.0 3.0 0.00 0.00 0.00 57 1023.4
20200408204526 63 23 2.0 2.0 0.00 0.00 0.00 57 1023.4
20200408204026 63 40 2.0 2.0 0.00 0.00 0.00 56 1023.1
20200408203526 64 24 2.0 4.0 0.00 0.00 0.00 56 1023.1
20200408203028 64 8 2.0 4.0 0.00 0.00 0.00 55 1023.1
20200408202525 64 9 2.0 3.0 0.00 0.00 0.00 54 1023.4
20200408202026 64 13 1.0 2.0 0.00 0.00 0.00 53 1023.1
20200408201526 64 17 1.0 2.0 0.00 0.00 0.00 53 1023.1
20200408201025 65 23 1.0 2.0 0.00 0.00 0.00 52 1023.1
20200408200526 65 19 3.0 6.0 0.00 0.00 0.00 52 1023.1
20200408200027 65 14 3.0 6.0 0.00 0.00 0.00 51 1023.1
20200408195527 65 7 2.0 5.0 0.00 0.00 0.00 50 1023.1
20200408195025 65 4 2.0 4.0 0.00 0.00 0.00 49 1023.1
20200408194525 65 356 1.0 2.0 0.00 0.00 0.00 49 1023.1
20200408194025 65 1 0.0 1.0 0.00 0.00 0.00 49 1023.1
20200408193525 65 1 0.0 1.0 0.00 0.00 0.00 48 1023.1
20200408193029 66 1 0.0 1.0 0.00 0.00 0.00 48 1022.8
20200408192527 66 1 0.0 1.0 0.00 0.00 0.00 47 1022.8
20200408192027 66 0 0.0 0.0 0.00 0.00 0.00 46 1022.8
20200408191526 67 0 0.0 0.0 0.00 0.00 0.00 46 1022.8
20200408191028 67 0 0.0 0.0 0.00 0.00 0.00 46 1022.8
20200408190525 67 0 0.0 0.0 0.00 0.00 0.00 46 1022.8
20200408190026 68 0 0.0 0.0 0.00 0.00 0.00 45 1022.8
20200408185526 68 0 0.0 0.0 0.00 0.00 0.00 44 1022.8
20200408185025 69 0 0.0 0.0 0.00 0.00 0.00 44 1022.4
20200408184526 69 0 0.0 0.0 0.00 0.00 0.00 43 1022.4
20200408184025 70 0 0.0 0.0 0.00 0.00 0.00 42 1022.4
20200408183526 70 0 0.0 0.0 0.00 0.00 0.00 41 1022.4
20200408183027 71 1 0.0 0.0 0.00 0.00 0.00 40 1022.4
20200408182525 71 1 1.0 1.0 0.00 0.00 0.00 39 1022.4
20200408182026 72 1 1.0 2.0 0.00 0.00 0.00 38 1022.4
20200408181526 72 1 1.0 2.0 0.00 0.00 0.00 38 1022.4
20200408181026 73 1 1.0 2.0 0.00 0.00 0.00 38 1022.4
20200408180527 73 4 1.0 2.0 0.00 0.00 0.00 37 1022.4
20200408180032 74 10 2.0 3.0 0.00 0.00 0.00 36 1022.4
20200408175525 73 12 2.0 3.0 0.00 0.00 0.00 35 1022.4
20200408175026 73 15 2.0 3.0 0.00 0.00 0.00 35 1022.4
20200408174527 73 13 2.0 4.0 0.00 0.00 0.00 35 1022.4
20200408174027 73 11 3.0 4.0 0.00 0.00 0.00 34 1022.4
20200408173526 73 7 2.0 4.0 0.00 0.00 0.00 34 1022.4
20200408173027 73 5 2.0 4.0 0.00 0.00 0.00 34 1022.4
20200408172526 73 13 2.0 3.0 0.00 0.00 0.00 34 1022.4
20200408172028 73 15 2.0 5.0 0.00 0.00 0.00 33 1022.4
20200408171527 73 12 3.0 5.0 0.00 0.00 0.00 33 1022.4
20200408171026 72 22 3.0 5.0 0.00 0.00 0.00 32 1022.4
20200408170526 72 24 3.0 5.0 0.00 0.00 0.00 32 1022.4
20200408170039 72 10 3.0 5.0 0.00 0.00 0.00 31 1022.4
20200408165530 73 2 3.0 4.0 0.00 0.00 0.00 31 1022.4
20200408165037 73 357 2.0 3.0 0.00 0.00 0.00 30 1022.4
20200408164539 73 3 2.0 4.0 0.00 0.00 0.00 29 1022.4
20200408164036 73 357 2.0 4.0 0.00 0.00 0.00 28 1022.4
20200408163533 73 325 1.0 2.0 0.00 0.00 0.00 27 1022.4
20200408163027 73 260 1.0 2.0 0.00 0.00 0.00 26 1022.4
20200408162527 73 170 1.0 2.0 0.00 0.00 0.00 26 1022.4
20200408162026 73 198 1.0 2.0 0.00 0.00 0.00 26 1022.4
20200408161526 73 339 1.0 2.0 0.00 0.00 0.00 26 1022.4
20200408161027 74 289 1.0 4.0 0.00 0.00 0.00 25 1022.4
20200408160527 74 223 1.0 4.0 0.00 0.00 0.00 25 1022.4
20200408160028 74 287 1.0 1.0 0.00 0.00 0.00 25 1022.4
20200408155528 74 235 1.0 2.0 0.00 0.00 0.00 25 1022.4
20200408155027 73 199 2.0 5.0 0.00 0.00 0.00 25 1022.4
20200408154527 73 201 2.0 5.0 0.00 0.00 0.00 25 1022.4
20200408154027 73 215 2.0 4.0 0.00 0.00 0.00 25 1022.4
20200408153526 73 218 2.0 4.0 0.00 0.00 0.00 25 1022.4
20200408153029 72 212 2.0 4.0 0.00 0.00 0.00 25 1022.4
20200408152526 72 244 2.0 3.0 0.00 0.00 0.00 25 1022.4
20200408152026 72 237 2.0 3.0 0.00 0.00 0.00 25 1022.8
20200408151527 72 202 3.0 5.0 0.00 0.00 0.00 25 1022.8
20200408151027 72 207 4.0 6.0 0.00 0.00 0.00 25 1022.8
20200408150527 72 203 3.0 6.0 0.00 0.00 0.00 25 1022.8
20200408150030 72 200 3.0 5.0 0.00 0.00 0.00 25 1022.8
20200408145527 72 209 2.0 5.0 0.00 0.00 0.00 25 1022.8
20200408145029 71 208 2.0 4.0 0.00 0.00 0.00 25 1022.8
20200408144527 71 263 2.0 4.0 0.00 0.00 0.00 25 1022.8
20200408144026 71 310 2.0 3.0 0.00 0.00 0.00 25 1022.8
20200408143527 71 208 2.0 3.0 0.00 0.00 0.00 26 1022.8
20200408143028 71 193 3.0 4.0 0.00 0.00 0.00 26 1023.1
20200408142526 71 208 3.0 6.0 0.00 0.00 0.00 26 1023.1
20200408142027 71 231 3.0 6.0 0.00 0.00 0.00 26 1023.1
20200408141526 71 225 3.0 5.0 0.00 0.00 0.00 26 1023.1
20200408141027 71 232 3.0 6.0 0.00 0.00 0.00 26 1023.1
20200408140525 71 273 2.0 6.0 0.00 0.00 0.00 26 1023.1
20200408140024 71 304 1.0 3.0 0.00 0.00 0.00 26 1023.1
20200408135523 71 247 2.0 4.0 0.00 0.00 0.00 26 1023.1
20200408135025 71 212 2.0 4.0 0.00 0.00 0.00 26 1023.4
20200408134526 71 241 2.0 4.0 0.00 0.00 0.00 27 1023.4
20200408134026 71 336 2.0 2.0 0.00 0.00 0.00 28 1023.4
20200408133523 70 336 1.0 2.0 0.00 0.00 0.00 28 1023.4
20200408133027 70 246 2.0 4.0 0.00 0.00 0.00 28 1023.4
20200408132525 69 216 2.0 5.0 0.00 0.00 0.00 29 1023.4
20200408132026 69 212 2.0 5.0 0.00 0.00 0.00 29 1023.4
20200408131526 69 222 1.0 3.0 0.00 0.00 0.00 29 1023.4
20200408131022 69 188 1.0 3.0 0.00 0.00 0.00 29 1023.4
20200408130526 69 215 1.0 3.0 0.00 0.00 0.00 29 1023.4
20200408130030 70 345 1.0 2.0 0.00 0.00 0.00 30 1023.8
20200408125526 70 16 2.0 5.0 0.00 0.00 0.00 30 1023.8
20200408125025 71 14 3.0 5.0 0.00 0.00 0.00 29 1023.8
20200408124528 71 12 3.0 5.0 0.00 0.00 0.00 30 1023.8
20200408124027 70 9 3.0 5.0 0.00 0.00 0.00 31 1023.8
20200408123525 70 347 2.0 3.0 0.00 0.00 0.00 31 1023.8
20200408123027 69 330 3.0 4.0 0.00 0.00 0.00 32 1023.8
20200408122525 70 337 3.0 5.0 0.00 0.00 0.00 31 1023.8
20200408122026 71 336 2.0 5.0 0.00 0.00 0.00 31 1023.8
20200408121525 71 347 2.0 4.0 0.00 0.00 0.00 31 1023.8
20200408121026 72 3 2.0 4.0 0.00 0.00 0.00 31 1023.8
20200408120525 73 1 2.0 4.0 0.00 0.00 0.00 31 1023.8
20200408120028 73 119 1.0 2.0 0.00 0.00 0.00 30 1024.1
20200408115526 73 15 2.0 4.0 0.00 0.00 0.00 31 1024.1
20200408115027 73 348 1.0 4.0 0.00 0.00 0.00 32 1024.1
20200408114524 73 304 1.0 2.0 0.00 0.00 0.00 32 1024.1
20200408114025 73 302 2.0 3.0 0.00 0.00 0.00 32 1024.1
20200408113525 74 319 2.0 3.0 0.00 0.00 0.00 32 1024.1
20200408113027 74 312 1.0 3.0 0.00 0.00 0.00 32 1024.1
20200408112525 74 316 2.0 2.0 0.00 0.00 0.00 32 1024.1
20200408112026 74 11 2.0 2.0 0.00 0.00 0.00 32 1024.1
20200408111526 75 27 2.0 3.0 0.00 0.00 0.00 32 1024.4
20200408111025 76 353 2.0 5.0 0.00 0.00 0.00 32 1024.4
20200408110527 76 337 2.0 5.0 0.00 0.00 0.00 33 1024.4
20200408110030 76 329 2.0 3.0 0.00 0.00 0.00 33 1024.4
20200408105526 76 343 2.0 3.0 0.00 0.00 0.00 33 1024.4
20200408105028 77 2 2.0 4.0 0.00 0.00 0.00 33 1024.4
20200408104527 77 346 2.0 4.0 0.00 0.00 0.00 34 1024.4
20200408104026 77 228 2.0 3.0 0.00 0.00 0.00 34 1024.4
20200408103526 77 215 2.0 4.0 0.00 0.00 0.00 34 1024.8
20200408103027 78 216 2.0 4.0 0.00 0.00 0.00 34 1024.8
20200408102525 78 205 2.0 4.0 0.00 0.00 0.00 35 1024.8
20200408102026 78 198 2.0 3.0 0.00 0.00 0.00 35 1024.8
20200408101527 79 194 2.0 4.0 0.00 0.00 0.00 35 1024.8
20200408101027 79 176 2.0 4.0 0.00 0.00 0.00 37 1024.8
20200408100525 79 195 2.0 6.0 0.00 0.00 0.00 37 1024.8
20200408100030 79 219 1.0 6.0 0.00 0.00 0.00 38 1025.1
20200408095528 77 279 1.0 2.0 0.00 0.00 0.00 39 1025.1
20200408095026 75 306 1.0 2.0 0.00 0.00 0.00 40 1025.1
20200408094526 74 262 1.0 2.0 0.00 0.00 0.00 40 1025.1
20200408094026 72 167 1.0 2.0 0.00 0.00 0.00 41 1025.1
20200408093525 71 149 1.0 1.0 0.00 0.00 0.00 42 1025.1
20200408093031 70 156 1.0 2.0 0.00 0.00 0.00 44 1025.1
20200408092525 69 177 1.0 2.0 0.00 0.00 0.00 45 1025.1
20200408092026 69 183 1.0 2.0 0.00 0.00 0.00 47 1025.5
20200408091525 69 357 1.0 2.0 0.00 0.00 0.00 49 1025.5
20200408091025 68 5 1.0 2.0 0.00 0.00 0.00 52 1025.5
20200408090525 67 12 1.0 2.0 0.00 0.00 0.00 54 1025.5
20200408090029 67 358 1.0 2.0 0.00 0.00 0.00 57 1025.5
20200408085526 64 357 1.0 2.0 0.00 0.00 0.00 60 1025.5
20200408085025 63 5 1.0 2.0 0.00 0.00 0.00 62 1025.5
20200408084528 62 1 1.0 2.0 0.00 0.00 0.00 64 1025.5
20200408084025 62 1 1.0 2.0 0.00 0.00 0.00 65 1025.5
20200408083526 61 9 1.0 2.0 0.00 0.00 0.00 65 1025.5
20200408083027 61 7 1.0 2.0 0.00 0.00 0.00 65 1025.5
20200408082526 60 1 1.0 2.0 0.00 0.00 0.00 66 1025.5
20200408082026 60 1 1.0 2.0 0.00 0.00 0.00 67 1025.5
20200408081525 59 2 1.0 2.0 0.00 0.00 0.00 67 1025.5
20200408081025 59 14 1.0 2.0 0.00 0.00 0.00 68 1025.5
20200408080525 59 40 1.0 2.0 0.00 0.00 0.00 68 1025.5
20200408080027 59 63 0.0 1.0 0.00 0.00 0.00 68 1025.5
20200408075525 58 68 0.0 0.0 0.00 0.00 0.00 68 1025.5
20200408075025 58 68 0.0 1.0 0.00 0.00 0.00 68 1025.5
20200408074525 58 68 0.0 1.0 0.00 0.00 0.00 69 1025.5
20200408074025 58 68 0.0 1.0 0.00 0.00 0.00 69 1025.5
20200408073526 58 68 0.0 1.0 0.00 0.00 0.00 69 1025.5
20200408073027 57 68 1.0 1.0 0.00 0.00 0.00 70 1025.5
20200408072524 57 68 0.0 1.0 0.00 0.00 0.00 71 1025.5
20200408072024 56 68 0.0 1.0 0.00 0.00 0.00 72 1025.5
20200408071526 56 68 0.0 1.0 0.00 0.00 0.00 73 1025.5
20200408071025 55 68 0.0 1.0 0.00 0.00 0.00 73 1025.5
20200408070525 55 68 0.0 0.0 0.00 0.00 0.00 74 1025.8
20200408070028 54 68 0.0 0.0 0.00 0.00 0.00 75 1025.8
20200408065524 54 68 0.0 0.0 0.00 0.00 0.00 75 1025.8
20200408065025 54 68 0.0 0.0 0.00 0.00 0.00 75 1025.5
20200408064526 53 56 0.0 1.0 0.00 0.00 0.00 75 1025.5
20200408064025 53 66 0.0 1.0 0.00 0.00 0.00 75 1025.5
20200408063523 53 98 0.0 1.0 0.00 0.00 0.00 76 1025.5
20200408063025 52 105 0.0 1.0 0.00 0.00 0.00 76 1025.5
20200408062524 52 106 0.0 1.0 0.00 0.00 0.00 76 1025.5
20200408062025 51 106 0.0 0.0 0.00 0.00 0.00 77 1025.5
20200408061525 51 148 0.0 0.0 0.00 0.00 0.00 77 1025.5
20200408061025 51 156 0.0 0.0 0.00 0.00 0.00 77 1025.5
20200408060526 51 156 0.0 0.0 0.00 0.00 0.00 77 1025.5
20200408060026 51 156 0.0 0.0 0.00 0.00 0.00 77 1025.5
20200408055524 50 0 0.0 0.0 0.00 0.00 0.00 77 1025.5
20200408055025 50 0 0.0 0.0 0.00 0.00 0.00 77 1025.5
20200408054524 50 0 0.0 0.0 0.00 0.00 0.00 77 1025.5
20200408054025 50 156 0.0 0.0 0.00 0.00 0.00 77 1025.5
20200408053525 49 156 0.0 0.0 0.00 0.00 0.00 77 1025.5
20200408053027 49 156 0.0 0.0 0.00 0.00 0.00 78 1025.5
20200408052524 49 156 0.0 0.0 0.00 0.00 0.00 77 1025.5
20200408052026 49 156 0.0 0.0 0.00 0.00 0.00 77 1025.5
20200408051524 49 112 0.0 0.0 0.00 0.00 0.00 77 1025.5
20200408051025 49 68 0.0 0.0 0.00 0.00 0.00 77 1025.5
20200408050530 49 68 0.0 0.0 0.00 0.00 0.00 76 1025.5
20200408050027 49 68 0.0 0.0 0.00 0.00 0.00 76 1025.5
20200408045523 49 0 0.0 0.0 0.00 0.00 0.00 76 1025.5
20200408045024 49 0 0.0 0.0 0.00 0.00 0.00 75 1025.5
20200408044523 49 0 0.0 0.0 0.00 0.00 0.00 75 1025.5
20200408044024 49 0 0.0 0.0 0.00 0.00 0.00 75 1025.5
20200408043524 49 0 0.0 0.0 0.00 0.00 0.00 74 1025.5
20200408043025 49 0 0.0 0.0 0.00 0.00 0.00 74 1025.5
20200408042524 49 0 0.0 0.0 0.00 0.00 0.00 74 1025.5
20200408042023 50 0 0.0 0.0 0.00 0.00 0.00 74 1025.5
20200408041523 50 68 0.0 0.0 0.00 0.00 0.00 74 1025.5
20200408041023 50 68 0.0 0.0 0.00 0.00 0.00 74 1025.5
20200408040523 50 68 0.0 0.0 0.00 0.00 0.00 73 1025.5
20200408040026 50 0 0.0 0.0 0.00 0.00 0.00 73 1025.5
20200408035524 50 68 0.0 1.0 0.00 0.00 0.00 73 1025.5
20200408035023 51 68 0.0 1.0 0.00 0.00 0.00 72 1025.5
20200408034524 51 68 0.0 0.0 0.00 0.00 0.00 72 1025.5
20200408034023 51 68 0.0 0.0 0.00 0.00 0.00 72 1025.5
20200408033524 51 68 0.0 0.0 0.00 0.00 0.00 72 1025.8
20200408033026 51 68 0.0 1.0 0.00 0.00 0.00 72 1025.5
20200408032523 51 62 0.0 1.0 0.00 0.00 0.00 71 1025.8
20200408032024 51 55 0.0 1.0 0.00 0.00 0.00 71 1025.8
20200408031524 51 90 0.0 2.0 0.00 0.00 0.00 71 1025.8
20200408031024 51 74 1.0 2.0 0.00 0.00 0.00 71 1025.8
20200408030524 51 58 0.0 2.0 0.00 0.00 0.00 71 1025.8
20200408030025 51 68 0.0 2.0 0.00 0.00 0.00 71 1025.8
20200408025524 51 68 0.0 0.0 0.00 0.00 0.00 70 1025.8
20200408025024 52 68 0.0 0.0 0.00 0.00 0.00 70 1026.1
20200408024524 52 68 0.0 0.0 0.00 0.00 0.00 70 1026.1
20200408024025 52 68 0.0 0.0 0.00 0.00 0.00 70 1026.1
20200408023524 52 68 0.0 1.0 0.00 0.00 0.00 71 1026.1
20200408023025 52 68 0.0 1.0 0.00 0.00 0.00 71 1026.1
20200408022524 52 77 0.0 1.0 0.00 0.00 0.00 70 1026.1
20200408022024 52 104 0.0 0.0 0.00 0.00 0.00 71 1026.5
20200408021524 52 93 0.0 0.0 0.00 0.00 0.00 71 1026.5
20200408021024 52 45 0.0 0.0 0.00 0.00 0.00 70 1026.5
20200408020524 52 45 0.0 0.0 0.00 0.00 0.00 70 1026.5
20200408020028 52 45 0.0 1.0 0.00 0.00 0.00 69 1026.5
20200408015524 53 45 0.0 1.0 0.00 0.00 0.00 69 1026.5
20200408015025 53 45 0.0 1.0 0.00 0.00 0.00 69 1026.5
20200408014525 53 45 0.0 1.0 0.00 0.00 0.00 69 1026.5
20200408014025 53 45 0.0 0.0 0.00 0.00 0.00 69 1026.5
20200408013523 53 45 0.0 0.0 0.00 0.00 0.00 68 1026.5
20200408013026 53 46 0.0 1.0 0.00 0.00 0.00 68 1026.5
20200408012524 54 46 0.0 1.0 0.00 0.00 0.00 68 1026.5
20200408012026 54 90 0.0 0.0 0.00 0.00 0.00 68 1026.5
20200408011541 54 63 0.0 1.0 0.00 0.00 0.00 68 1026.8
20200408011045 54 45 0.0 1.0 0.00 0.00 0.00 67 1026.8
20200408010529 54 45 0.0 0.0 0.00 0.00 0.00 67 1026.8
20200408010037 54 33 0.0 1.0 0.00 0.00 0.00 66 1026.8
20200408005534 54 24 0.0 1.0 0.00 0.00 0.00 66 1026.8
20200408005029 54 23 0.0 1.0 0.00 0.00 0.00 66 1027.2
20200408004524 54 22 0.0 1.0 0.00 0.00 0.00 66 1027.2
20200408004025 55 22 0.0 1.0 0.00 0.00 0.00 66 1027.2
20200408003524 55 23 0.0 1.0 0.00 0.00 0.00 65 1027.2
20200408003026 55 23 0.0 1.0 0.00 0.00 0.00 65 1027.2
20200408002525 55 23 0.0 0.0 0.00 0.00 0.00 64 1027.2
20200408002025 55 22 0.0 1.0 0.00 0.00 0.00 64 1027.2
20200408001525 56 48 0.0 1.0 0.00 0.00 0.00 64 1027.2
20200408001025 56 80 0.0 1.0 0.00 0.00 0.00 64 1027.5
20200408000525 56 57 1.0 1.0 0.00 0.00 0.00 64 1027.5
20200408000025 56 100 0.0 1.0 0.00 0.00 0.00 64 1027.5
20200407235524 56 121 0.0 1.0 0.00 0.00 0.00 64 1027.5
20200407235024 56 59 0.0 1.0 0.00 0.00 0.00 63 1027.5
20200407234525 56 53 0.0 1.0 0.00 0.00 0.00 63 1027.5
20200407234024 56 52 0.0 1.0 0.00 0.00 0.00 63 1027.5
20200407233526 57 44 1.0 1.0 0.00 0.00 0.00 63 1027.5
20200407233026 57 40 1.0 2.0 0.00 0.00 0.00 62 1027.5
20200407232525 57 40 1.0 2.0 0.00 0.00 0.00 63 1027.5
20200407232024 57 22 1.0 2.0 0.00 0.00 0.00 62 1027.5
20200407231524 57 296 1.0 2.0 0.00 0.00 0.00 62 1027.5
20200407231024 57 152 1.0 2.0 0.00 0.00 0.00 62 1027.5
20200407230523 57 156 1.0 2.0 0.00 0.00 0.00 63 1027.5
20200407230026 57 153 1.0 1.0 0.00 0.00 0.00 63 1027.5
20200407225531 57 55 1.0 1.0 0.00 0.00 0.00 62 1027.5
20200407225025 57 28 1.0 1.0 0.00 0.00 0.00 62 1027.5